Torna al catalogo

METEOR 2-12 DEB

AttivoPO
NORAD 59996·DEBRIS·🇷🇺 Russia

Lanciato Feb 6, 1985 da Plesetsk Cosmodrome

Loading…

Prossimi Passaggi (prossime 24 ore)

TLE

AggiornatoSource: Space-Track

Epoca: Sep 13, 2026, 02:40 UTC

1 59996U 85013G   26256.11153439  .00001836  00000-0  11243-2 0  9994
2 59996  82.5259 196.7653 0010285 222.4298 152.3068 14.05352334629803

Traccia METEOR 2-12 DEB in tempo reale con AllMySat

Download on the App Store